Flag for Poland Weather past 2 weeks in Gorzów Wielkopolski, Poland

Now
70 °F

Clear.


Feels Like: 70 °F
Forecast: 55 / 74 °F
Wind: 3 mph from East

Location: Gorzow Wlkp

Current Time: Sep 17, 2014 at 8:41:46 PM

Latest Report: Sep 17, 2014 at 8:00 PM


Visibility: 16 mi

Pressure: 30.07 "Hg

Humidity: 58%

Dew point: 54 °F

Location of Gorzów WielkopolskiLocation

Historic Weather in Gorzów Wielkopolski — Graph

°F

Gorzów Wielkopolski temperature yesterday

Maximum temperature yesterday: 74 °F (at 4:00 PM)
Minimum temperature yesterday: 56 °F (at 7:00 AM)
Average temperature yesterday: 64 °F

Past Weeks' High & Low Weather Summary

 TemperatureHumidityPressure
High79 °F (Sep 7, 4:00 PM)99% (Sep 11, 3:00 AM)30.32 "Hg (Sep 11, 3:00 AM)
Low50 °F (Sep 11, 2:00 AM)42% (Sep 17, 5:00 PM)29.89 "Hg (Sep 7, 5:00 PM)
Average63 °F76%30.08 "Hg
* Reported Sep 2 7:00 PM — Sep 17 7:00 PM, Gorzów Wielkopolski, Weather by CustomWeather, © 2014

Note: Actual official high and low records may vary slightly from our data, if they occured in-between our weather recording intervals... More about our weather records

Advertising

Gorzów Wielkopolski weather history for previous 24 hours

 ConditionsComfort  
Time TempWeatherWind HumidityBarometerVisibility
7:00 PM
Sep 17
72 °FSunny.5 mph53%30.06 "Hg19 mi
6:00 PM75 °FSunny.3 mph44%30.06 "Hg19 mi
5:00 PM78 °FSunny.3 mph42%30.06 "Hg25 mi
4:00 PM77 °FSunny.5 mph45%30.06 "Hg19 mi
3:00 PM72 °FSunny.3 mph49%30.07 "Hg19 mi
2:00 PM71 °FPassing clouds.5 mph55%30.09 "Hg19 mi
1:00 PM69 °FSunny.5 mph57%30.10 "Hg12 mi
12:00 PM65 °FSunny.5 mph69%30.11 "Hg12 mi
11:00 AM61 °FPassing clouds.3 mph72%30.14 "Hg12 mi
10:00 AM58 °FPassing clouds.3 mph78%30.14 "Hg12 mi
9:00 AM55 °FPassing clouds.3 mph80%30.14 "Hg12 mi
8:00 AM53 °FPassing clouds.3 mph84%30.14 "Hg12 mi
7:00 AM51 °FPassing clouds.2 mph86%30.13 "Hg9 mi
6:00 AM52 °FClear.2 mph84%30.13 "Hg9 mi
5:00 AM53 °FClear.2 mph81%30.14 "Hg12 mi
4:00 AM54 °FClear.3 mph79%30.14 "Hg12 mi
3:00 AM56 °FClear.5 mph76%30.14 "Hg16 mi
2:00 AM57 °FClear.5 mph72%30.14 "Hg16 mi
1:00 AM58 °FClear.3 mph69%30.14 "Hg16 mi
12:00 AM60 °FClear.3 mph67%30.15 "Hg16 mi
11:00 PM
Sep 16
61 °FClear.3 mph69%30.15 "Hg16 mi
10:00 PM63 °FClear.3 mph67%30.14 "Hg12 mi
9:00 PM65 °FPassing clouds.5 mph65%30.14 "Hg12 mi
8:00 PM66 °FPassing clouds.3 mph63%30.13 "Hg12 mi
Weather by CustomWeather, © 2014

See weather overviewHow to use our weather pages